Home   Weather   Trinidad   Past weeks
Flag for Cuba

Past Weather in Trinidad, Cuba — Yesterday and Last 2 Weeks

Now
79 °F

Passing clouds.


Feels Like: 81 °F
Forecast: 84 / 72 °F
Wind: 7 mph from Southwest

Location: Cienfuegos - Las Villas

Current Time: Mar 18, 2019 at 8:47:33 pm

Latest Report: Mar 18, 2019 at 7:50 pm


Visibility: N/A

Pressure: 29.95 "Hg

Humidity: 74%

Dew Point: 70 °F

Location of TrinidadLocation

Past Weather in Trinidad — Graph

°F

Trinidad Temperature Yesterday

Maximum temperature yesterday: 86 °F (at 11:50 am)
Minimum temperature yesterday: 66 °F (at 6:59 am)
Average temperature yesterday: 77 °F

High & Low Weather Summary for the Past Weeks

 TemperatureHumidityPressure
High91 °F (Mar 11, 12:50 pm)100% (Mar 3, 11:58 pm)30.21 "Hg (Mar 3, 11:58 pm)
Low64 °F (Mar 7, 1:59 am)34% (Mar 16, 2:50 pm)29.92 "Hg (Mar 18, 4:51 pm)
Average77 °F75%30.07 "Hg
* Reported Mar 3 6:59 pm — Mar 18 7:50 pm, Trinidad. Weather by CustomWeather, © 2019

Note: Actual official high and low records may vary slightly from our data, if they occured in-between our weather recording intervals... More about our weather records

Advertising

Trinidad Weather History for the Previous 24 Hours

Scroll right to see more
 ConditionsComfort  
Time TempWeatherWind HumidityBarometerVisibility
7:50 pm
Mon, Mar 18
79 °FPassing clouds.7 mph74%29.95 "HgN/A
6:50 pm81 °FPartly sunny.10 mph70%29.92 "HgN/A
5:50 pm82 °FPartly sunny.13 mph66%29.92 "HgN/A
4:51 pm84 °FBroken clouds.13 mph58%29.92 "HgN/A
3:50 pm86 °FBroken clouds.13 mph55%29.95 "HgN/A
2:51 pm86 °FBroken clouds.12 mph52%29.95 "HgN/A
1:50 pm86 °FBroken clouds.13 mph55%29.98 "HgN/A
12:50 pm86 °FBroken clouds.8 mph59%30.01 "HgN/A
11:50 am82 °FBroken clouds.5 mph62%30.04 "HgN/A
10:50 am84 °FBroken clouds.7 mph62%30.04 "HgN/A
9:50 am81 °FScattered clouds.5 mph70%30.04 "HgN/A
8:53 am75 °FScattered clouds.3 mph83%30.01 "HgN/A
7:59 am68 °FMild.3 mph94%30.01 "HgN/A
6:59 am68 °FMild.5 mph94%30.01 "HgN/A
5:59 am70 °FMild.6 mph94%29.98 "HgN/A
4:59 am68 °FMild.7 mph94%29.98 "HgN/A
3:59 am70 °FMild.7 mph94%29.98 "HgN/A
2:59 am70 °FMild.7 mph94%30.01 "HgN/A
1:59 am70 °FMild.8 mph94%30.01 "HgN/A
12:59 am72 °FMild.6 mph83%30.04 "HgN/A
11:59 pm
Sun, Mar 17
72 °FMild.5 mph83%30.04 "HgN/A
10:59 pm73 °FMild.5 mph78%30.04 "HgN/A
9:59 pm77 °FWarm.7 mph69%30.04 "HgN/A
8:59 pm77 °FWarm.3 mph79%30.01 "HgN/A
Weather by CustomWeather, © 2019

See weather overview